Terminal Aerodrome Forecast
Issued by NWS

Home | Current Version | Previous Version | Text Only | Print | Product List | Glossary On
Versions: 1 2 3 4 5 6 7 8 9 10 11 12 13 14 15 16 17 18
635
FTUS44 KLIX 281940 AAA
TAFGPT
TAF AMD
KGPT 281940Z 2820/2918 06006KT P6SM SCT040 BKN090
     FM282300 VRB05KT P6SM SCT045 BKN150
     FM290800 VRB03KT P6SM BKN015
     FM291400 16005KT P6SM BKN030 PROB30 2916/2918 3SM -TSRA
      BKN022CB=

USA.gov is the U.S. government's official web portal to all federal, state and local government web resources and services.